Location: Church Tower
(37.7144°N, 119.6316°W)
Time: 20:38:59
(UTC+00:00)

Cosmos 1603 - Pass Details

Date: 15 November 2025
Orbit: 830 x 858 km, 71.0° (Epoch: 08 December)

Event Time Altitude Azimuth Distance (km) Brightness Sun altitude
Rises 13:52:34 0° 190° (S) 3,412 6.9 -9.5°
Reaches altitude 10° 13:55:03 10° 186° (S) 2,482 6.3 -9.0°
Maximum altitude 14:00:39 60° 108° (ESE) 979 4.5 -8.0°
Drops below altitude 10° 14:06:17 10° 30° (NNE) 2,495 6.3 -6.9°
Sets 14:08:46 0° 27° (NNE) 3,433 7.0 -6.4°
